Location: Unspecified
(0.0000°N, 0.0000°E)
Time: 12:47:01
(UTC+00:00)

LES 2 - Pass Details

Date: 21 August 2024
Orbit: 2771 x 14805 km, 32.2° (Epoch: 15 September)

Event Time Altitude Azimuth Distance (km) Brightness Sun altitude
Rises 19:12:04 0° 282° (WNW) 6,867 ? -16.9°
Reaches altitude 10° 19:16:30 10° 273° (W) 5,605 ? -18.0°
Maximum altitude 19:29:15 40° 204° (SSW) 3,956 ? -21.1°
Enters shadow 19:47:28 12° 138° (SE) 7,949 ? -25.5°
